Location: Luz Observatory
(34.5000°N, 117.2833°W)
Time: 00:21:41
(UTC-07:00)

Daily predictions for brighter satellites

Satellite Brightness Start Highest point End
(mag) Time Altitude Azimuth Time Altitude Azimuth Time Altitude Azimuth
NOSS 3-1 (C) 4.4 00:05:16 10° NW 00:11:46 54° W 00:11:46 54° W
USA 234 4.4 00:09:10 10° NNE 00:15:06 38° NW 00:18:24 23° W
Cosmos 2369 Rocket 4.1 00:34:53 22° NW 00:34:53 22° NW 00:38:56 10° N
CZ-2C R/B 4.5 00:35:15 10° NNE 00:37:25 25° NNE 00:37:25 25° NNE
CZ-3B DEB 4.5 00:10:29 10° NW 00:46:18 89° SW 00:50:37 59° SE
ATLAS 3B CENTAUR R/B 4.2 00:59:07 63° SE 00:59:07 63° SE 01:23:20 10° E
Cosmos 1943 Rocket 3.9 01:03:42 27° NNW 01:03:42 27° NNW 01:07:00 10° N
ATLAS CENTAUR R/B 4.3 01:34:29 17° NE 01:34:29 17° NE 01:35:46 10° NE
ATLAS 2AS CENTAUR R/B 4.1 01:48:41 10° NW 01:53:00 30° WNW 01:53:00 30° WNW
Cosmos 1697 Rocket 3.8 02:19:13 39° ENE 02:19:13 39° ENE 02:23:14 10° NE
Cosmos 1464 Rocket 4.2 02:26:08 68° NNE 02:26:08 68° NNE 02:31:36 10° N
Cosmos 1980 Rocket 3.5 02:28:07 31° E 02:28:07 31° E 02:32:21 10° NE
Resurs 1-4 Rocket 4.2 02:26:07 10° NE 02:29:30 17° E 02:29:56 17° E
SeaSat 1 3.9 02:34:34 30° NNW 02:34:34 30° NNW 02:37:02 10° NNW
Cosmos 2227 Rocket 3.2 02:32:09 10° NNW 02:35:39 39° NNW 02:35:39 39° NNW
Cosmos 2322 Rocket 4.4 02:39:52 14° ESE 02:40:57 14° E 02:43:50 10° ENE
NPP 4.1 02:45:50 10° N 02:50:08 55° NNW 02:50:08 55° NNW
Cosmos 2297 Rocket 2.8 02:53:05 10° NNW 02:57:07 47° NW 02:57:07 47° NW
Milstar 3 Cent rocket 3.5 03:02:11 28° ESE 03:02:11 28° ESE 03:05:34 10° ESE
Meteor 2-5 Rocket 4.3 03:01:21 10° NNW 03:06:03 49° WNW 03:06:03 49° WNW
ATLAS CENTAUR R/B 3.4 03:10:48 25° NW 03:10:48 25° NW 03:14:28 10° N
Okean O Rocket 4.3 03:08:34 10° ENE 03:10:28 13° E 03:12:22 10° ESE
ERS-2 4.1 03:06:48 10° N 03:08:37 27° N 03:08:37 27° N
Cosmos 1408 Rocket 4.3 03:07:21 10° N 03:11:11 50° NE 03:11:11 50° NE
Cosmos 841 Rocket 3.6 03:14:44 65° NW 03:14:44 65° NW 03:19:31 10° NNE
SL-16 R/B 3.6 03:13:56 25° SE 03:15:36 29° ESE 03:20:24 10° NE
Cosmos 1766 Rocket 4.1 03:12:55 10° N 03:16:59 55° ENE 03:16:59 55° ENE
Cosmos 2360 4.3 03:17:19 60° SE 03:17:54 63° ESE 03:23:32 10° NNE
Cosmos 1763 Rocket 3.9 03:18:52 52° NW 03:18:52 52° NW 03:23:25 10° N
NOSS 3-4 (A) 3.7 03:12:16 10° NNW 03:19:21 79° WSW 03:23:10 32° SSE
NOSS 3-4 (C) 3.7 03:12:22 10° NNW 03:19:30 79° WSW 03:23:37 30° SSE
DELTA 2 R/B (1) 4.2 03:22:53 43° SE 03:22:53 43° SE 03:27:44 10° ENE
Geosat 4.3 03:19:22 10° NNE 03:24:03 52° NW 03:24:03 52° NW
Cosmos 1544 4.3 03:34:34 37° E 03:34:34 37° E 03:37:53 10° NNE
Nadezhda 4 Rocket 3.9 03:29:42 10° NNW 03:35:49 63° W 03:36:47 56° SW
BREEZE-M DEB (TANK) 3.1 03:35:14 58° W 03:35:56 68° NW 03:39:55 10° NE
UNKNOWN OBJECT B 3.5 03:32:26 10° NNE 03:36:06 46° E 03:36:06 46° E
Cosmos 1441 Rocket 4.2 03:32:27 10° NNW 03:35:13 42° NNW 03:35:13 42° NNW
SL-24 R/B 4.1 03:37:30 79° SSW 03:37:45 84° WSW 03:42:17 10° NNW
CZ-2D R/B 2.1 03:32:19 10° NNE 03:37:46 82° ESE 03:38:57 56° S
Cosmos 540 Rocket 3.5 03:38:33 58° SSE 03:39:28 73° ESE 03:44:38 10° NNE
Meteor 1-24 Rocket 4.0 03:35:03 10° NNW 03:40:37 50° W 03:40:46 50° W
Cosmos 1805 3.5 03:43:42 65° N 03:43:42 65° N 03:47:05 10° N
EO 1 Del DPAF 3.7 03:42:53 54° ESE 03:43:21 60° ENE 03:47:12 10° N
ARIANE 5 R/B 2.5 03:39:27 10° N 03:44:33 62° WNW 03:45:08 58° WSW
SL-16 R/B 2.4 03:44:11 31° S 03:47:22 83° WSW 03:53:34 10° NNW
CZ-3 R/B 4.0 03:29:13 29° SW 03:50:08 58° S 04:00:07 10° E
SME Rocket 4.1 03:48:30 41° SSW 03:50:34 68° W 03:58:46 10° NNW
Cosmos 2227 4.3 03:46:29 10° NNW 03:52:16 77° ENE 03:58:00 10° SSE
Cosmos 1758 3.7 03:53:04 52° NW 03:53:04 52° NW 03:56:33 10° N
OAO 1 4.4 03:52:47 49° W 03:54:10 70° SSW 03:59:36 10° ESE
Cosmos 1655 Rocket 4.4 03:48:08 10° N 03:54:30 66° E 04:00:50 10° SSE
Cosmos 1953 2.8 03:56:01 47° WNW 03:56:01 47° WNW 03:59:33 10° N
In-Cosmos 22 3.9 03:53:30 10° NNW 03:58:47 75° W 04:00:56 37° S
Cosmos 1697 Rocket 4.1 04:00:57 21° WNW 04:02:01 22° WNW 04:06:20 10° N
Delta 128 4.3 04:05:50 34° S 04:05:50 34° S 04:09:53 10° ESE
Cosmos 2026 Rocket 4.0 04:00:14 10° N 04:06:35 89° E 04:12:14 13° S
Resurs 1-4 Rocket 2.4 04:04:30 10° N 04:09:32 47° WNW 04:11:01 37° WSW
Cosmos 1674 3.3 04:06:40 10° N 04:10:20 54° E 04:13:01 17° SSE
Cosmos 1980 Rocket 3.2 04:09:53 27° W 04:11:19 30° WNW 04:16:15 10° N
Cosmos 2360 Rocket 3.6 04:06:59 10° SSE 04:11:53 33° ESE 04:16:51 10° NE
Cosmos 1634 Rocket 4.3 04:10:05 34° SW 04:12:17 48° W 04:18:20 10° N
Cosmos 1538 Rocket 4.2 04:12:48 24° S 04:15:57 69° ESE 04:21:16 10° NNE
IRS-1D 4.4 04:12:30 10° N 04:16:50 31° WNW 04:17:55 28° W
Cosmos 2195 Rocket 4.4 04:11:54 10° NNW 04:17:55 64° W 04:22:22 19° S
Cosmos 332 Rocket 4.3 04:20:11 34° WSW 04:21:32 42° WNW 04:26:08 10° N
Cosmos 1500 Rocket 3.4 04:19:20 10° NNW 04:23:42 71° W 04:26:25 22° S
Cosmos 2322 Rocket 2.3 04:21:43 31° SW 04:24:21 61° WNW 04:29:56 10° NNE
CZ-4B DEB 4.5 04:22:05 10° NNE 04:27:37 68° ESE 04:32:50 11° S
Cosmos 1743 Rocket 4.1 04:25:31 10° NNW 04:29:33 38° W 04:30:47 31° SW
ARGOS Delta rocket 4.0 04:26:01 10° NNE 04:31:01 72° E 04:35:18 12° S
Cosmos 2221 2.9 04:30:55 11° S 04:34:57 62° E 04:39:12 10° NNE
Cosmos 1437 4.3 04:33:30 10° NW 04:35:32 22° WNW 04:35:32 22° WNW
Cosmos 2058 4.1 04:35:16 10° N 04:39:19 45° E 04:43:20 10° SSE
RESURS DK-1 2.4 04:35:59 10° NNW 04:40:01 54° WSW 04:44:02 10° S
Cosmos 371 Rocket 3.8 04:37:54 25° WSW 04:40:11 42° WNW 04:44:45 10° N
GPS 2-04 Rocket1 2.7 04:39:16 22° W 04:41:40 58° SSW 04:45:27 10° ESE
Cosmos 1470 3.4 04:40:33 27° SW 04:42:01 37° W 04:45:44 10° N
Cosmos 372 Rocket 4.0 04:37:50 10° NNW 04:42:48 54° WSW 04:47:44 10° S
Okean O Rocket 2.0 04:42:48 10° N 04:47:02 47° WNW 04:49:54 19° SW
CZ-2C R/B 3.8 04:44:32 10° S 04:49:10 60° W 04:53:44 10° NNW
Cosmos 1428 Rocket 4.5 04:44:01 10° NNW 04:50:03 63° W 04:56:03 10° S
ADEOS Rocket 4.1 04:45:34 10° NNE 04:52:13 54° E 04:59:27 10° S
Delta 2 Rocket 3.9 04:50:46 21° SSW 04:52:42 37° SSE 04:56:19 10° E
GRACE-1 3.9 04:54:44 14° S 04:57:00 59° W 04:59:52 10° N
Abrixas 3.3 04:55:34 17° W 04:57:16 29° SW 04:59:58 10° SSE
GRACE-2 3.9 04:55:07 14° S 04:57:26 58° W 05:00:17 10° N
OTV 4 3.1 04:58:29 10° SSE 04:59:32 11° SE 05:00:34 10° SE
SL-16 R/B 3.1 04:55:50 16° WSW 04:59:32 33° WNW 05:04:38 10° N
Hubble Space Telescope 3.2 04:59:40 10° SSE 05:00:28 10° SSE 05:01:16 10° SE
Cosmos 1346 3.8 04:58:04 10° N 05:01:03 56° E 05:04:00 10° SSE
PSLV R/B 3.6 05:01:06 10° NNE 05:05:21 83° E 05:09:39 10° S
DELTA 2 R/B (1) 3.8 05:03:39 12° W 05:08:48 69° NNW 05:14:24 10° ENE
COSMOS 2428 3.6 05:05:51 10° S 05:11:17 51° ESE 05:16:45 10° NNE
Cosmos 1461 4.0 05:08:21 10° WNW 05:11:24 21° WSW 05:14:23 10° SSW
Cosmos 2263 Rocket 2.1 05:06:44 10° NNW 05:12:20 85° WSW 05:17:52 10° SSE
Lacrosse 5 rocket 4.2 05:11:07 10° N 05:13:11 14° NE 05:15:17 10° ENE
ADEOS II 2.2 05:09:49 10° NNE 05:15:06 81° ESE 05:20:21 10° S
CZ-2D R/B 4.1 05:15:26 10° NW 05:17:03 11° WNW 05:18:40 10° W
Meteor 1-31 Rocket 3.9 05:14:27 10° NNE 05:18:11 46° E 05:21:53 10° S
Cosmos 2112 Rocket 4.2 05:13:48 10° S 05:18:58 76° ESE 05:24:11 10° NNE
Elektron 1 4.0 05:16:23 10° SSW 05:19:16 82° ESE 05:23:24 10° NE
Cosmos 2322 3.8 05:14:37 10° SSW 05:20:16 62° WNW 05:25:57 10° NNE
CZ-4B R/B 4.0 05:19:33 10° NNW 05:22:38 23° WNW 05:25:37 10° SW
CZ-4B R/B 4.1 05:18:18 10° N 05:23:07 32° WNW 05:27:51 10° SW
Cosmos 921 Rocket 3.8 05:19:10 10° N 05:23:39 60° ENE 05:28:05 10° SSE
Cosmos 1805 Rocket 3.7 05:20:47 10° NNW 05:25:02 55° W 05:29:18 10° S
Cosmos 2237 4.4 05:25:45 10° SSW 05:31:29 85° ESE 05:37:15 10° NNE
Cosmos 2266 Rocket 4.2 05:28:19 10° NNW 05:34:15 50° W 05:40:16 10° SSW
Sich 1 3.0 05:31:46 10° NNW 05:36:03 67° W 05:40:22 10° S
Okean-O 3.2 05:32:01 10° N 05:36:12 41° WNW 05:40:22 10° SW
Milstar 3 Cent rocket 3.6 05:32:00 10° WSW 05:37:32 41° S 05:47:33 10° ESE
